This is the latest recevied weather packets stored in our database for station/object OK1PMP-6. If no packets are shown the sender has not sent any weather packets the latest 10 day(s).
| Time | Temp. | Humidity | Pressure | Rain* | Wind** | Luminosity | Snow |
|---|---|---|---|---|---|---|---|
| 1777617587 | 7.78° C | 68% | 1032.8 hPa | 0 mm | - | 354 W/m² | - |
| 1777616681 | 7.22° C | 68% | 1032.9 hPa | 0 mm | - | 312 W/m² | - |
| 1777615774 | 6.67° C | 71% | 1032.8 hPa | 0 mm | - | 267 W/m² | - |
| 1777614873 | 5° C | 74% | 1032.9 hPa | 0 mm | - | 224 W/m² | - |
| 1777613962 | 4.44° C | 76% | 1032.9 hPa | 0 mm | - | 179 W/m² | - |
| 1777613064 | 3.33° C | 77% | 1032.7 hPa | 0 mm | - | 143 W/m² | - |
| 1777612159 | 2.78° C | 80% | 1032.9 hPa | 0 mm | - | 107 W/m² | - |
| 1777611245 | 1.11° C | 85% | 1033 hPa | 0 mm | - | 75 W/m² | - |
| 1777610340 | 0° C | 84% | 1032.7 hPa | 0 mm | - | 50 W/m² | - |
| 1777609444 | -0.56° C | 82% | 1032.9 hPa | 0 mm | - | 26 W/m² | - |
| 1777608590 | -0.56° C | 83% | 1033 hPa | 0 mm | - | 17 W/m² | - |
| 1777607637 | -0.56° C | 82% | 1032.7 hPa | 0 mm | - | 9 W/m² | - |
| 1777606731 | -0.56° C | 82% | 1032.5 hPa | 0 mm | - | 3 W/m² | - |
| 1777605831 | 0° C | 83% | 1032.6 hPa | 0 mm | - | 0 W/m² | - |
| 1777604930 | 0° C | 87% | 1032.8 hPa | 0 mm | - | 0 W/m² | - |
| 1777604025 | 0° C | 81% | 1032.6 hPa | 0 mm | - | 0 W/m² | - |
| 1777603125 | 0° C | 80% | 1032.4 hPa | 0 mm | - | 0 W/m² | - |
| 1777602225 | 0° C | 81% | 1032.7 hPa | 0 mm | - | 0 W/m² | - |
| 1777601324 | 0° C | 80% | 1032.3 hPa | 0 mm | - | 0 W/m² | - |
| 1777586030 | 2.78° C | 70% | 1032.4 hPa | 0 mm | - | 0 W/m² | - |
| 1777584224 | 3.33° C | 66% | 1032.5 hPa | 0 mm | - | 0 W/m² | - |
| 1777581524 | 4.44° C | 60% | 1032.5 hPa | 0 mm | - | 0 W/m² | - |
| 1777579724 | 5.56° C | 57% | 1032.6 hPa | 0 mm | - | 0 W/m² | - |
| 1777578827 | 6.67° C | 54% | 1032.4 hPa | 0 mm | - | 0 W/m² | - |
| 1777577026 | 8.33° C | 50% | 1032.3 hPa | 0 mm | - | 0 W/m² | - |
* Rain latest hour (hover to see other rain measurements)
** Current wind speed in m/s (hover to see current wind gust speed)